Regional Weather Roundup
Issued by NWS

Home | Current Version | Previous Version | Graphics & Text | Print | Product List | Glossary On
Versions: 1 2 3 4 5 6 7 8 9 10 11 12 13 14 15 16 17 18 19 20 21 22 23 24 25 26 27 28 29 30 31 32 33 34 35 36 37 38 39 40 41 42 43 44 45 46 47 48 49 50
424
ASUS43 KOAX 191602
RWRNE

WEATHER ROUNDUP FOR NEBRASKA
NATIONAL WEATHER SERVICE OMAHA NE
1000 AM CST SUN FEB 19 2017

NOTES: SATELLITE DATA IS BEING USED TO AUGMENT CLOUD COVER ABOVE
       12000 FEET.
       "FAIR" INDICATES FEW OR NO CLOUDS BELOW 12,000 FEET WITH NO
       SIGNIFICANT WEATHER AND/OR OBSTRUCTIONS TO VISIBILITY.

  * THESE STATIONS DO NOT REPORT WEATHER SUCH AS RAIN...SNOW OR FOG.

NEZ001>004-019>022-054>056-191700-
NEBRASKA PANHANDLE

CITY           SKY/WX    TMP DP  RH WIND       PRES   REMARKS
SCOTTSBLUFF    CLOUDY    38  29  70 CALM      29.67R
ALLIANCE       CLOUDY    37  31  78 CALM      29.65S
CHADRON        SUNNY     49  32  52 W5        29.60F
KIMBALL        CLOUDY    42  33  71 SW5       29.69S
SIDNEY         CLOUDY    44  30  57 W7        29.68S
$$

NEZ057>060-069>072-079>082-191700-
SOUTHWEST NEBRASKA

CITY           SKY/WX    TMP DP  RH WIND       PRES   REMARKS
NORTH PLATTE   PTSUNNY   51  43  74 S7        29.73R
IMPERIAL       CLOUDY    49  35  58 SW9       29.72R
LEXINGTON      CLOUDY    52  47  82 S16       29.76S
MCCOOK         CLOUDY    52  46  80 S10       29.75R
OGALLALA       CLOUDY    49  37  61 S13       29.69F
$$

NEZ005>010-023>029-035>040-094-191700-
NORTH CENTRAL NEBRASKA

CITY           SKY/WX    TMP DP  RH WIND       PRES   REMARKS
VALENTINE      SUNNY     50  35  56 SW17G26   29.64R
AINSWORTH      CLOUDY    53  41  63 S18       29.67S
BROKEN BOW     SUNNY     51  45  79 S17G24    29.74S
O`NEILL        MOSUNNY   53  46  76 S15G22    29.72F
ORD            MOSUNNY   51  45  79 S16G24    29.74F
THEDFORD       MOSUNNY   51  40  65 S18       29.69R
$$

NEZ041-046>049-061>064-073>077-083>087-191700-
SOUTH CENTRAL NEBRASKA

CITY           SKY/WX    TMP DP  RH WIND       PRES   REMARKS
GRAND ISLAND   CLOUDY    52  49  89 S14       29.81F
AURORA         MOSUNNY   51  48  89 S10       29.84R
HASTINGS       MOSUNNY   53  48  83 S14       29.82F
HEBRON         MOSUNNY   54  49  82 S15       29.87S
HOLDREGE       CLOUDY    50  48  92 S14       29.79R FOG
KEARNEY *      MOSUNNY   52  46  82 S17G23    29.80S
YORK           CLOUDY    54  48  82 S14G20    29.85R
$$

NEZ011>018-030>034-042>045-191700-
NORTHEAST NEBRASKA

CITY           SKY/WX    TMP DP  RH WIND       PRES   REMARKS
NORFOLK        PTSUNNY   54  45  71 S14       29.79S
ALBION         PTSUNNY   50  46  84 SE9       29.80S
BLAIR          SUNNY     54  47  77 S13       29.89R
FREMONT        MOSUNNY   53  46  77 SE10      29.87S
WAYNE          MOSUNNY   50  45  80 S18       29.80F
$$

NEZ050>053-065>068-078-088>093-191700-
SOUTHEAST NEBRASKA

CITY           SKY/WX    TMP DP  RH WIND       PRES   REMARKS
LINCOLN        CLOUDY    56  48  74 S13       29.88F
OMAHA EPPLEY   PTSUNNY   54  45  71 S13       29.90R
BEATRICE       MOSUNNY   56  50  80 S12       29.90S
FALLS CITY     PTSUNNY   54  49  83 SE10      29.93R
NEBRASKA CITY  MOSUNNY   55  47  74 S12       29.92S
PLATTSMOUTH    CLOUDY    54  46  73 SE10      29.91R
$$

NEZ044-045-051>053-067-191700-
OMAHA AREA

CITY           SKY/WX    TMP DP  RH WIND       PRES   REMARKS
OMAHA EPPLEY   PTSUNNY   54  45  71 S13       29.90R
BLAIR          SUNNY     54  47  77 S13       29.89R
FREMONT        MOSUNNY   53  46  77 SE10      29.87S
MILLARD        MOSUNNY   56  48  76 SE9       29.90S
OFFUTT AFB     MOSUNNY   54  52  92 S12       29.91R
PLATTSMOUTH    CLOUDY    54  46  73 SE10      29.91R
WAHOO          FAIR      51  45  81 SE10      29.87F
$$




USA.gov is the U.S. government's official web portal to all federal, state and local government web resources and services.